Shannon, Ireland

7:25 AM IST on August 21, 2017 (GMT +0100)
Shannon

Weather History for EINN - September, 2013

Change the Weather History Date:

Sunday, September 15, 2013

  Actual Average Record
Temperature  
Mean Temperature 56 °F -  
Max Temperature 62 °F 60 °F 71 °F (2003)
Min Temperature 50 °F 48 °F 42 °F (2006)
Degree Days  
Heating Degree Days 9    
Growing Degree Days 6 (Base 50)    
Moisture  
Dew Point 50 °F    
Average Humidity 81    
Maximum Humidity 100    
Minimum Humidity 55    
Precipitation  
Precipitation 0.08 in 0.11 in - ()
Sea Level Pressure  
Sea Level Pressure 29.75 in    
Wind  
Wind Speed 17 mph ()    
Max Wind Speed 31 mph    
Max Gust Speed 46 mph    
Visibility 5.8 miles    
Events Rain    
Averages and records for this station are not official NWS values.
T = Trace of Precipitation, MM = Missing Value Source: Averaged Metar Reports

Daily Weather History Graph

Daily Weather History Graph

Search for Another Location

Airport or City:

Trip Planner

Search our weather history database for the weather conditions in past years. The results will help you decide how hot, cold, wet, or windy it might be!

Date:

Astronomy

Sep. 15, 2013 Rise Set
Actual Time 7:09 AM IST 7:50 PM IST
Civil Twilight 6:35 AM IST 8:25 PM IST
Nautical Twilight 5:53 AM IST 9:06 PM IST
Astronomical Twilight 5:09 AM IST 9:50 PM IST
Moon 5:32 PM IST (9/15) 2:03 AM IST (9/15)
Length of Visible Light 13h 49m
Length of Day
12h 40m
Waxing Gibbous, 80% of the Moon is Illuminated
Sep 15
Waxing Gibbous
Sep 19
Full
Sep 27
Last Quarter
Oct 5
New
Oct 12
First Quarter

Hourly Weather History & Observations

Time (IST) Temp. Dew Point Humidity Pressure Visibility Wind Dir Wind Speed Gust Speed Precip Events Conditions
12:00 AM 53.6 °F 50.0 °F 88% 30.06 in - South 10.4 mph - N/A   Clear
12:30 AM 55.4 °F 50.0 °F 82% 30.04 in - South 10.4 mph - N/A   Clear
1:00 AM 55 °F 50 °F 77% 30.03 in 11 mi South 11.2 mph - - Rain Light Rain
1:00 AM 55.4 °F 50.0 °F 82% 30.01 in 6.2 mi South 10.4 mph - N/A Rain Light Rain
1:30 AM 53.6 °F 50.0 °F 88% 30.01 in 6.2 mi SSW 9.2 mph - N/A Rain Light Rain
2:00 AM 53.6 °F 51.8 °F 94% 29.98 in 6.2 mi South 10.4 mph - N/A   Mostly Cloudy
2:30 AM 53.6 °F 50.0 °F 88% 29.98 in 6.2 mi South 11.5 mph - N/A   Mostly Cloudy
3:00 AM 55.4 °F 50.0 °F 82% 29.95 in 6.2 mi South 11.5 mph - N/A   Overcast
3:30 AM 55.4 °F 50.0 °F 82% 29.92 in 6.2 mi South 11.5 mph - N/A   Overcast
4:00 AM 55.4 °F 51.8 °F 88% 29.86 in 6.2 mi South 16.1 mph - N/A Rain Light Rain
4:30 AM 57.2 °F 53.6 °F 88% 29.83 in 6.2 mi South 16.1 mph - N/A   Mostly Cloudy
5:00 AM 57.2 °F 53.6 °F 88% 29.80 in 6.2 mi South 13.8 mph - N/A   Mostly Cloudy
5:30 AM 59.0 °F 55.4 °F 88% 29.80 in 5.0 mi SSW 16.1 mph - N/A Rain Light Rain
6:00 AM 59.0 °F 57.2 °F 94% 29.77 in 4.3 mi SSW 18.4 mph - N/A Rain Light Rain
6:30 AM 59.0 °F 57.2 °F 94% 29.74 in 6.2 mi SSW 11.5 mph - N/A Rain Light Rain
7:00 AM 60 °F 59 °F 94% 29.74 in 9 mi SW 17.9 mph - - Rain Light Rain
7:00 AM 60.8 °F 57.2 °F 88% 29.71 in 6.2 mi SW 17.3 mph - N/A Rain Light Rain
7:30 AM 60.8 °F 59.0 °F 94% 29.71 in 4.3 mi SW 23.0 mph - N/A Rain Light Rain
8:00 AM 60.8 °F 59.0 °F 94% 29.68 in 6.2 mi SW 23.0 mph - N/A Rain Light Rain
8:30 AM 60.8 °F 59.0 °F 94% 29.65 in 3.1 mi SW 23.0 mph - N/A   Light Drizzle
9:00 AM 60.8 °F 59.0 °F 94% 29.65 in - SW 28.8 mph 40.3 mph N/A Rain Light Rain
9:30 AM 60.8 °F 60.8 °F 100% 29.65 in 2.2 mi SW 28.8 mph 42.6 mph N/A Rain Light Rain
10:00 AM 60.8 °F 60.8 °F 100% 29.62 in 3.7 mi WSW 26.5 mph - N/A   Light Drizzle
10:30 AM 60.8 °F 60.8 °F 100% 29.62 in 1.9 mi WSW 27.6 mph 39.1 mph N/A   Light Drizzle
11:00 AM 60.8 °F 60.8 °F 100% 29.62 in 2.8 mi West 21.9 mph 33.4 mph N/A Rain Light Rain
11:30 AM 60.8 °F 59.0 °F 94% 29.62 in 2.8 mi West 28.8 mph 43.7 mph N/A Rain Light Rain
12:00 PM 59.0 °F 53.6 °F 82% 29.62 in 6.2 mi West 31.1 mph 43.7 mph N/A   Mostly Cloudy
12:30 PM 60.8 °F 53.6 °F 77% 29.65 in 6.2 mi West 28.8 mph - N/A   Mostly Cloudy
1:00 PM 59 °F 50 °F 64% 29.67 in 12 mi West 31.3 mph - -   Partly Cloudy
1:00 PM 59.0 °F 50.0 °F 72% 29.65 in 6.2 mi West 31.1 mph 46.0 mph N/A   Scattered Clouds
1:30 PM 57.2 °F 50.0 °F 77% 29.68 in 6.2 mi West 27.6 mph 42.6 mph N/A   Partly Cloudy
2:00 PM 57.2 °F 48.2 °F 72% 29.68 in 6.2 mi West 25.3 mph 36.8 mph N/A   Scattered Clouds
2:30 PM 59.0 °F 46.4 °F 63% 29.68 in 6.2 mi West 28.8 mph 42.6 mph N/A Rain Light Rain Showers
3:00 PM 57.2 °F 46.4 °F 67% 29.68 in 6.2 mi WNW 29.9 mph 43.7 mph N/A   Scattered Clouds
3:30 PM 57.2 °F 42.8 °F 59% 29.68 in 6.2 mi West 25.3 mph - N/A   Partly Cloudy
4:00 PM 53.6 °F 44.6 °F 72% 29.71 in 6.2 mi West 24.2 mph 36.8 mph N/A   Partly Cloudy
4:30 PM 57.2 °F 42.8 °F 59% 29.71 in 6.2 mi West 25.3 mph 39.1 mph N/A   Partly Cloudy
5:00 PM 57.2 °F 41.0 °F 55% 29.68 in 6.2 mi West 27.6 mph - N/A   Partly Cloudy
5:30 PM 57.2 °F 41.0 °F 55% 29.68 in 6.2 mi West 27.6 mph - N/A   Scattered Clouds
6:00 PM 53.6 °F 44.6 °F 72% 29.71 in 4.3 mi West 21.9 mph 34.5 mph N/A Rain Light Rain Showers
6:30 PM 53.6 °F 46.4 °F 77% 29.71 in 4.3 mi West 20.7 mph - N/A Rain Light Rain Showers
7:00 PM 52 °F 44 °F 66% 29.72 in 6 mi West 20.1 mph - - Rain Light Rain Showers
7:00 PM 51.8 °F 44.6 °F 76% 29.71 in 6.2 mi West 19.6 mph - N/A   Partly Cloudy
7:30 PM 53.6 °F 44.6 °F 72% 29.71 in 4.3 mi West 21.9 mph - N/A Rain Light Rain Showers
8:00 PM 50.0 °F 46.4 °F 87% 29.71 in 5.0 mi West 20.7 mph - N/A Rain Light Rain Showers
8:30 PM 50.0 °F 44.6 °F 82% 29.71 in 6.2 mi West 18.4 mph - N/A   Mostly Cloudy
9:00 PM 50.0 °F 44.6 °F 82% 29.71 in 6.2 mi West 15.0 mph - N/A Rain Light Rain Showers
9:30 PM 50.0 °F 42.8 °F 76% 29.71 in 6.2 mi West 18.4 mph - N/A   Partly Cloudy
10:00 PM 50.0 °F 42.8 °F 76% 29.71 in 6.2 mi West 17.3 mph - N/A   Partly Cloudy
10:30 PM 50.0 °F 42.8 °F 76% 29.71 in 6.2 mi West 17.3 mph - N/A   Partly Cloudy
11:00 PM 50.0 °F 44.6 °F 82% 29.71 in 6.2 mi West 17.3 mph - N/A   Partly Cloudy
11:30 PM 50.0 °F 42.8 °F 76% 29.71 in 5.6 mi West 19.6 mph - N/A Rain Light Rain Showers